Wainwright, AK

5:42 AM AKDT on May 30, 2017 (GMT -0800)
Wainwright

Weather History for PAWI - May, 2013

Change the Weather History Date:

Sunday, May 19, 2013

  Actual Average (PABR) Record (PABR)
Temperature  
Mean Temperature 18 °F -  
Max Temperature 34 °F 24 °F 46 °F (2015)
Min Temperature 3 °F 16 °F 0 °F (1922)
Degree Days  
Heating Degree Days 46    
Moisture  
Dew Point 18 °F    
Average Humidity 82    
Maximum Humidity 93    
Minimum Humidity 74    
Precipitation  
Precipitation 0.00 in - - ()
Sea Level Pressure  
Sea Level Pressure 30.05 in    
Wind  
Wind Speed 12 mph (South)    
Max Wind Speed 26 mph    
Max Gust Speed -    
Visibility 7 miles    
Events Snow    
Averages and records for this station are not official NWS values.
T = Trace of Precipitation, MM = Missing Value Source: NWS Daily Summary

Daily Weather History Graph

Daily Weather History Graph

Search for Another Location

Airport or City:

Trip Planner

Search our weather history database for the weather conditions in past years. The results will help you decide how hot, cold, wet, or windy it might be!

Date:

Astronomy

May. 19, 2013 Rise Set
Actual Time 3:08 AM AKDT 2:04 AM AKDT
Civil Twilight Sun does not set Sun does not set
Nautical Twilight Sun does not set Sun does not set
Astronomical Twilight Sun does not set Sun does not set
Moon 4:12 PM AKDT (5/19) 4:05 AM AKDT (5/19)
Length of Visible Light 24h 00m
Length of Day
22h 55m
Waxing Gibbous, 66% of the Moon is Illuminated
May 19
Waxing Gibbous
May 24
Full
May 31
Last Quarter
Jun 8
New
Jun 16
First Quarter

Hourly Weather History & Observations

Time (AKDT) Temp. Windchill Dew Point Humidity Pressure Visibility Wind Dir Wind Speed Gust Speed Precip Events Conditions
12:53 AM 9.0 °F -3.2 °F 3.0 °F 77% 29.96 in 10.0 mi ESE 8.1 mph - N/A   Mostly Cloudy
1:53 AM 8.1 °F -2.0 °F 1.9 °F 76% 29.97 in 10.0 mi SE 5.8 mph - N/A   Scattered Clouds
2:53 AM 7.0 °F -3.3 °F 1.0 °F 77% 29.98 in 10.0 mi ESE 5.8 mph - N/A   Clear
3:53 AM 6.1 °F -4.3 °F 1.0 °F 80% 29.99 in 10.0 mi SE 5.8 mph - N/A   Clear
4:53 AM 6.1 °F -5.6 °F 1.0 °F 80% 30.01 in 10.0 mi SE 6.9 mph - N/A   Clear
5:53 AM 3.0 °F -9.3 °F -0.9 °F 84% 30.02 in 10.0 mi SE 6.9 mph - N/A   Clear
6:53 AM 5.0 °F -8.1 °F 1.0 °F 84% 30.03 in 10.0 mi SE 8.1 mph - N/A   Clear
7:51 AM 6.8 °F -4.8 °F 3.2 °F 85% 30.04 in 10.0 mi ESE 6.9 mph - N/A   Partly Cloudy
7:53 AM 7.0 °F -4.5 °F 3.0 °F 84% 30.04 in 10.0 mi ESE 6.9 mph - N/A   Partly Cloudy
8:53 AM 10.0 °F 0.4 °F 5.0 °F 80% 30.05 in 10.0 mi SE 5.8 mph - N/A   Scattered Clouds
9:53 AM 15.1 °F 2.5 °F 9.0 °F 77% 30.04 in 10.0 mi ESE 10.4 mph - N/A   Clear
10:53 AM 19.9 °F 5.2 °F 12.9 °F 74% 30.01 in 10.0 mi SE 17.3 mph - N/A   Clear
11:53 AM 24.1 °F 10.1 °F 17.1 °F 75% 30.00 in 10.0 mi SE 18.4 mph - N/A   Clear
12:53 PM 28.0 °F 14.9 °F 21.9 °F 78% 29.99 in 10.0 mi SE 19.6 mph - N/A   Clear
1:53 PM 30.9 °F 16.9 °F 24.1 °F 76% 29.99 in 10.0 mi SSE 26.5 mph - N/A   Overcast
2:53 PM 32.0 °F 19.2 °F 25.0 °F 75% 30.00 in 10.0 mi SSE 23.0 mph - N/A   Clear
3:53 PM 33.1 °F 21.2 °F 27.0 °F 78% 30.01 in 10.0 mi SSE 20.7 mph - N/A   Mostly Cloudy
4:53 PM 33.1 °F 21.2 °F 28.0 °F 82% 30.01 in 10.0 mi SSE 20.7 mph - N/A   Mostly Cloudy
5:53 PM 34.0 °F 22.4 °F 28.0 °F 79% 30.02 in 10.0 mi South 20.7 mph - N/A   Overcast
6:53 PM 34.0 °F 22.1 °F 28.0 °F 79% 30.03 in 10.0 mi South 21.9 mph - N/A   Overcast
7:53 PM 34.0 °F 23.0 °F 28.0 °F 79% 30.04 in 10.0 mi South 18.4 mph - N/A   Overcast
8:53 PM 34.0 °F 22.7 °F 28.9 °F 82% 30.06 in 10.0 mi SSW 19.6 mph - N/A   Overcast
9:03 PM 33.8 °F 21.6 °F 28.4 °F 81% 30.05 in 8.0 mi SSW 23.0 mph - N/A   Overcast
9:34 PM 33.8 °F 22.5 °F 30.2 °F 87% 30.07 in 2.5 mi SSW 19.6 mph - 0.00 in Snow Light Snow
9:42 PM 33.8 °F 22.2 °F 30.2 °F 87% 30.07 in 2.5 mi SSW 20.7 mph - 0.00 in Snow Light Snow
9:53 PM 33.1 °F 20.9 °F 28.9 °F 85% 30.08 in 2.0 mi SSW 21.9 mph - 0.00 in Snow Light Snow
10:11 PM 33.8 °F 24.3 °F 28.4 °F 81% 30.09 in 3.0 mi SW 13.8 mph - 0.00 in Snow Light Snow
10:28 PM 30.2 °F 21.9 °F 28.4 °F 93% 30.10 in 2.5 mi WSW 9.2 mph - 0.00 in Snow Light Snow
10:40 PM 30.2 °F 23.4 °F 28.4 °F 93% 30.11 in 2.5 mi WSW 6.9 mph - 0.00 in Snow Light Snow
10:50 PM 30.2 °F 22.6 °F 26.6 °F 86% 30.11 in 1.8 mi West 8.1 mph - 0.00 in Snow Light Snow
11:00 PM 28.4 °F 18.0 °F 26.6 °F 93% 30.12 in 1.8 mi West 12.7 mph - 0.00 in Snow Light Snow
11:15 PM 28.4 °F 19.7 °F 24.8 °F 86% 30.13 in 1.5 mi West 9.2 mph - 0.00 in Snow Light Snow
11:39 PM 26.6 °F 16.2 °F 23.0 °F 86% 30.14 in 1.5 mi West 11.5 mph - 0.00 in Snow Light Snow
11:46 PM 26.6 °F 16.8 °F 21.2 °F 80% 30.15 in 3.0 mi West 10.4 mph - 0.00 in Snow Light Snow
11:53 PM 27.0 °F 18.0 °F 23.0 °F 85% 30.15 in 3.0 mi West 9.2 mph - 0.00 in Snow Light Snow